Torna al catalogo

STARLINK-36503

AttivoComunicazioniVLEO
NORAD 67411·PAYLOAD·🇺🇸 United States

Lanciato Jan 12, 2026 da Cape Canaveral Space Force Station

Loading…

Prossimi Passaggi (prossime 24 ore)

TLE

AggiornatoSource: CelesTrak SupGP

Epoca: Sep 15, 2026, 02:52 UTC

1 67411C 26005H   26258.11993056 -.00030883  00000+0 -11186-2 0  2589
2 67411  43.0021 248.0781 0001144 266.8329 270.3343 15.27592705    13

Traccia STARLINK-36503 in tempo reale con AllMySat

Download on the App Store